Home   Weather   Moncton   Past weeks

Flag for Canada Past Weather in Moncton, New Brunswick, Canada — Yesterday and Last 2 Weeks

Now
64 °F

Broken clouds.


Feels Like: 64 °F
Forecast: 47 / 66 °F
Wind: 13 mph from Southwest

Location: Moncton

Current Time: Apr 29, 2017 at 2:41:44 pm

Latest Report: Apr 29, 2017 at 2:00 pm


Visibility: 15 mi

Pressure: 29.76 "Hg

Humidity: 49%

Dew Point: 45 °F

Location of MonctonLocation

Past Weather in Moncton — Graph

°F

Moncton Temperature Yesterday

Maximum temperature yesterday: 64 °F (at 1:00 pm)
Minimum temperature yesterday: 41 °F (at 2:26 am)
Average temperature yesterday: 51 °F

High & Low Weather Summary for the Past Weeks

 TemperatureHumidityPressure
High70 °F (Apr 27, 4:00 pm)100% (Apr 16, 8:00 pm)30.69 "Hg (Apr 16, 8:00 pm)
Low21 °F (Apr 19, 2:00 am)25% (Apr 19, 4:38 pm)29.65 "Hg (Apr 16, 2:00 pm)
Average42 °F79%30.12 "Hg
* Reported Apr 14 1:00 pm — Apr 29 1:00 pm, Moncton, Weather by CustomWeather, © 2017

Note: Actual official high and low records may vary slightly from our data, if they occured in-between our weather recording intervals... More about our weather records

Advertising

Moncton Weather History for the Previous 24 Hours

Scroll right to see more
 ConditionsComfort  
Time TempWeatherWind HumidityBarometerVisibility
1:00 pm
Sat, Apr 29
61 °FOvercast.18 mph63%29.80 "Hg15 mi
12:20 pm61 °FOvercast.14 mph63%29.80 "Hg15 mi
12:00 pm61 °FOvercast.13 mph68%29.81 "Hg15 mi
11:00 am61 °FPartly sunny.15 mph68%29.83 "Hg15 mi
10:00 am61 °FPartly sunny.10 mph72%29.84 "Hg15 mi
9:00 am54 °FPartly sunny.8 mph94%29.87 "Hg15 mi
8:24 am54 °FPartly sunny.10 mph94%29.88 "Hg15 mi
7:50 am52 °FPartly sunny.12 mph94%29.88 "Hg15 mi
7:27 am52 °FLow clouds.13 mph100%29.89 "Hg15 mi
7:00 am52 °FPartly sunny.14 mph100%29.89 "Hg15 mi
6:14 am52 °FPartly sunny.12 mph94%29.88 "Hg15 mi
5:00 am52 °FLow clouds.14 mph100%29.88 "Hg15 mi
4:43 am54 °FLow clouds.16 mph94%29.87 "Hg15 mi
4:00 am54 °FDrizzle. Fog.14 mph100%29.87 "Hg1 mi
3:00 am55 °FDrizzle. Fog.13 mph100%29.88 "Hg6 mi
2:25 am55 °FDrizzle. Fog.14 mph100%29.89 "Hg6 mi
2:00 am55 °FLow clouds.14 mph100%29.89 "Hg10 mi
1:00 am54 °FLow clouds.6 mph94%29.89 "Hg10 mi
12:00 am54 °FLow clouds.3 mph100%29.89 "Hg15 mi
11:09 pm
Fri, Apr 28
54 °FLight rain. Overcast.5 mph94%29.90 "Hg12 mi
10:00 pm54 °FOvercast.5 mph100%29.90 "Hg15 mi
9:00 pm55 °FLight rain. Overcast.3 mph94%29.92 "Hg12 mi
8:00 pm57 °FLight rain. Mostly cloudy.7 mph88%29.92 "Hg12 mi
7:54 pm57 °FLight rain. Mostly cloudy.8 mph88%29.92 "Hg12 mi
7:00 pm57 °FPartly sunny.8 mph94%29.93 "Hg12 mi
6:54 pm57 °FPartly sunny.7 mph94%29.93 "Hg12 mi
6:00 pm57 °FLight rain. Mostly cloudy.9 mph94%29.95 "Hg12 mi
5:34 pm57 °FLight rain. Fog.13 mph94%29.95 "Hg2 mi
5:22 pm59 °FLight rain. Fog.14 mph82%29.96 "Hg2 mi
5:00 pm61 °FOvercast.15 mph77%29.95 "Hg15 mi
4:00 pm63 °FMostly cloudy.12 mph77%29.96 "Hg15 mi
3:00 pm64 °FPartly sunny.10 mph73%29.95 "Hg15 mi
2:00 pm63 °FBroken clouds.8 mph83%29.96 "Hg15 mi
Weather by CustomWeather, © 2017

See weather overviewHow to use our weather pages